Regional Weather Roundup
Issued by NWS

Home | Current Version | Previous Version | Graphics & Text | Print | Product List | Glossary Off
Versions: 1 2 3 4 5 6 7 8 9 10 11 12 13 14 15 16 17 18 19 20 21 22 23 24 25 26 27 28 29 30 31 32 33 34 35 36 37 38 39 40 41 42 43 44 45 46 47 48 49 50

000
ASUS43 KDTX 062210
RWRMI
MICHIGAN HOURLY REGIONAL WEATHER ROUNDUP
NATIONAL WEATHER SERVICE DETROIT/PONTIAC MI
ISSUED BY NATIONAL WEATHER SERVICE GRAND RAPIDS MI
600 PM EDT WED MAY 06 2015

NOTE: "FAIR" INDICATES FEW OR NO CLOUDS BELOW 12,000 FEET WITH NO
SIGNIFICANT WEATHER AND/OR OBSTRUCTION TO VISIBILITY.

MIZ047>049-052>055-059>063-066>070-074>076-081>083-062300-
SOUTHEAST LOWER MICHIGAN

CITY           SKY/WX    TMP DP  RH WIND       PRES   REMARKS
ADRIAN         SUNNY     68  60  75 VRB3      30.18F
ALMA           MOSUNNY   74  59  59 E3        30.16F
ANN ARBOR      SUNNY     72  60  66 CALM      30.17F
BAD AXE        SUNNY     70  54  56 S7        30.19F
DETROIT CITY   SUNNY     68  57  68 E5        30.19F
DETROIT        MOSUNNY   72  59  63 E6        30.18F
FLINT          SUNNY     77  57  50 CALM      30.17F
GROSSE ILE     SUNNY     57  52  82 S5        30.18F HAZE
HILLSDALE      SUNNY     71  62  74 E6        30.18F
HOWELL         SUNNY     73  58  60 E6        30.17S

CITY           SKY/WX    TMP DP  RH WIND       PRES   REMARKS
JACKSON        SUNNY     71  60  68 S6        30.17F
LANSING        MOSUNNY   73  60  63 VRB5      30.17F
MASON          SUNNY     72  61  69 CALM      30.17S
MONROE         SUNNY     64  55  72 SE8       30.17F HAZE
MT. CLEMENS    MOSUNNY   69  58  68 CALM      30.17F
PONTIAC        MOSUNNY   71  57  61 E5        30.17F
PORT HOPE        N/A     49  43  80 E8        30.20F
PORT HURON     MOSUNNY   68  55  64 NE7       30.19S
TRI CITIES     SUNNY     73  52  47 NE9       30.18F
YPSILANTI      SUNNY     75  59  57 SE8       30.18F
$$
MIZ043>046-050>051-056>058-064>065-071>073-077>080-062300-
SOUTHWEST LOWER MICHIGAN

CITY           SKY/WX    TMP DP  RH WIND       PRES   REMARKS
BATTLE CREEK   SUNNY     77  61  57 VRB6      30.15F
BENTON HARBOR  SUNNY     76  57  51 NW6       30.10F
BIG RAPIDS     PTSUNNY   75  56  50 SE5       30.14S
COLDWATER      SUNNY     73  61  65 SE3       30.15F
HOLLAND        MOSUNNY   77  63  61 E8        30.12F
GRAND RAPIDS   MOSUNNY   75  60  59 E6        30.14F
KALAMAZOO      SUNNY     77  61  57 CALM      30.14F
MARSHALL       MOSUNNY   74  62  64 CALM      30.14F
MOUNT PLEASANT SUNNY     74  56  52 E7        30.15F
MUSKEGON       PTSUNNY   76  58  53 W3        30.12F
STURGIS        SUNNY     77  63  61 S5        30.13F
$$
MIZ016>042-062300-
NORTHERN LOWER MICHIGAN

CITY           SKY/WX    TMP DP  RH WIND       PRES   REMARKS
ALPENA         MOSUNNY   61  44  53 SE14      30.20F
BEAVER ISLAND  MOSUNNY   64  39  40 NE6       30.17F
BELLAIRE       CLOUDY    72  46  39 CALM      30.14F
CADILLAC       PTSUNNY   74  56  53 S6        30.14F
CHARLEVOIX     MOSUNNY   61  41  47 N5        30.18F
GAYLORD        PTSUNNY   71  47  42 S8        30.16F
HOUGHTON LAKE  PTSUNNY   72  51  47 W3        30.17F
MANISTEE       SUNNY     63  46  55 NW8       30.14F
OSCODA         SUNNY     56  46  69 E6        30.20F
PELLSTON       MOSUNNY   71  38  29 E12       30.16F
TRAVERSE CITY  PTSUNNY   60  39  45 N8        30.14F
LUDINGTON      PTSUNNY   71  54  54 NW3       30.13F
$$
MIZ007>008-015-062300-
EASTERN UPPER MICHIGAN

CITY           SKY/WX    TMP DP  RH WIND       PRES   REMARKS
KINROSS        MOSUNNY   70  27  19 SE10      30.16F
MACKINAC ISLAN MOSUNNY   55  38  53 E15G22    30.17F
NEWBERRY       SUNNY     70  20  15 S12G20    30.15F
S. S. MARIE    MOSUNNY   69  25  19 SE8       30.16F
$$
MIZ004>006-011>014-085-062300-
CENTRAL UPPER MICHIGAN

CITY           SKY/WX    TMP DP  RH WIND       PRES   REMARKS
MANISTIQUE     MOSUNNY   62  34  35 SE8       30.16F
ESCANABA       MOSUNNY   57  37  47 S7        30.15F
MENOMINEE      PTSUNNY   61  46  59 E10       30.12F
$$
MIZ001>003-009>011-084-062300-
WESTERN UPPER MICHIGAN

CITY           SKY/WX    TMP DP  RH WIND       PRES   REMARKS
IRON MOUNTAIN  PTSUNNY   70  51  51 SE14      30.09F
HOUGHTON       MOSUNNY   67  34  29 E9        30.07F
COPPER HARBOR    N/A     66  30  26 S9        30.08F
IRONWOOD       CLOUDY    72  57  60 SE10G16   29.99F
$$

ABBREVIATIONS USED IN REMARKS
   TC - TEMPERATURE IN CELSIUS
  WCI - WIND CHILL INDEX
   HX - HEAT INDEX
  VSB - VISIBILITY




USA.gov is the U.S. government's official web portal to all federal, state and local government web resources and services.